Regional Weather Roundup
Issued by NWS Green Bay, WI

Home | Current Version | Previous Version | Graphics & Text | Print | Product List | Glossary Off
Versions: 1 2 3 4 5 6 7 8 9 10 11 12 13 14 15 16 17 18 19 20 21 22 23 24 25 26 27 28 29 30 31 32 33 34 35 36 37 38 39 40 41 42 43 44 45 46 47 48 49 50

000
ASUS43 KGRB 270210
RWRGRB

NORTH-CENTRAL AND NORTHEAST WISCONSIN REGIONAL WEATHER ROUNDUP
NATIONAL WEATHER SERVICE GREEN BAY WI
900 PM CDT SUN APR 26 2015

WIZ005-009-010>012-018-019-270300-
NORTH CENTRAL WISCONSIN

CITY           SKY/WX    TMP DP  RH WIND       PRES   REMARKS
IRONWOOD       CLEAR     39  30  70 CALM      30.13R
MANITOWISH WTR CLEAR     43  25  49 N5        30.13R
ARBOR VITAE    CLEAR     42  27  56 N5        30.12R
EAGLE RIVER    CLEAR     41  27  57 N5        30.11R
LAND O LAKES   CLEAR     42  29  59 N5        30.13R
RHINELANDER    CLEAR     45  29  53 N7        30.11R
PHILLIPS       CLEAR     44  26  50 N5        30.11S
ANTIGO         CLEAR     46  29  52 N10       30.08R
TOMAHAWK       CLEAR     46  26  45 CALM      30.11R
MERRILL        CLEAR     47  27  44 N9        30.09R
$$

WIZ013-073-270300-
NORTHEAST WISCONSIN

CITY           SKY/WX    TMP DP  RH WIND       PRES   REMARKS
IRON MOUNTAIN  CLEAR     45  26  47 N10       30.08R
MARINETTE      MOCLDY    46  27  46 NE9       30.08R
OCONTO         CLEAR     44  33  67 E3        30.07R
$$

WIZ017-030-035>037-045-270300-
CENTRAL WISCONSIN

CITY           SKY/WX    TMP DP  RH WIND       PRES   REMARKS
MEDFORD        CLEAR     46  28  47 N8        30.09R
WAUSAU         CLEAR     51  25  36 N7        30.05R
MOSINEE        CLEAR     52  25  35 N8        30.07
MARSHFIELD     CLEAR     53  26  35 N10       30.07R
WISC RAPIDS    CLEAR     54  22  28 N12       30.05R
STEVENS POINT  CLEAR     50  24  36 N6        30.06R
WAUPACA        CLEAR     51  27  38 NE7       30.06R
SHAWANO        CLEAR     46  32  58 CALM      30.07R
CLINTONVILLE   CLEAR     46  30  53 E3        30.06R
$$

WIZ038-039-048-051-270300-
FOX VALLEY

CITY           SKY/WX    TMP DP  RH WIND       PRES   REMARKS
NWS GREEN BAY  CLEAR     48  33  56 NE10      30.07R
APPLETON       CLEAR     50  28  43 NE9       30.05R
OSHKOSH        CLEAR     47  30  51 E9        30.05R
FOND DU LAC    CLEAR     45  27  49 E9        30.05R
$$

WIZ022-050-052-270300-
EAST CENTRAL WISCONSIN

CITY           SKY/WX    TMP DP  RH WIND       PRES   REMARKS
STURGEON BAY   CLOUDY    45  28  53 N13G20    30.10R
MANITOWOC      CLEAR     42  32  67 NE6       30.07R
SHEBOYGAN      CLEAR     39  30  70 NE10      30.06R
$$

LMZ563-521-522-541>543-270300-
LAKESHORE

STATION/POSITION TIME  TEMP    WIND        PRES    VSBY  WAVE
                       AIR SEA DIR/SP/G                  HT/PER
                 (UTC) (F)     (DEG/KT/KT) (MB)    (MI)  (FT/S)
SHEBOYGAN LKSHOR 0200   42      10/ 13/ 14 1018.8R
KEWAUNEE LKSHORE 0200   42      30/ 11/ 14 1017.4R
NORTHPORT PIER   0200   41     330/  9/ 11 1018.3S
SISTER BAY LKSHO 0200   45      10/ 13/ 18   N/A
CHAMBERS ISLAND  0200   42     360/ 10/ 12 1019.0R
MENOMINEE LKSHOR 0200   42      30/ 10/ 11 1019.1R
$$


USA.gov is the U.S. government's official web portal to all federal, state and local government web resources and services.